Burnsville, North Carolina, United States (28714)
Lat: 35.92N, Lon: 82.3W
Wx Zone: NCZ049
Local Info
Past Weather Observations for Today

NOTE: This archive is for the closest National Weather Service station to Burnsville. Information may differ from the station used for current weather conditions.

Time Weather Temperature Dewpoint Humidity Pressure Winds Precip Visibility
19:54
Clear
57°F / 14°C 27°F / -3°C 31% 30.01 in
(1016 mb)
NNW 6.9 mph
(NNW 11 kph)
- 10SM
18:54
Clear
61°F / 16°C 25°F / -4°C 25% 29.98 in
(1015 mb)
N 12.7 mph
(N 20 kph)
- 10SM
17:54
Clear
64°F / 18°C 25°F / -4°C 22% 29.95 in
(1014 mb)
NNW 15 mph
(NNW 24 kph)
- 10SM
16:54
Clear
68°F / 20°C 25°F / -4°C 20% 29.95 in
(1014 mb)
N 12.7 mph
(N 20 kph)
- 10SM
15:54
Clear
68°F / 20°C 27°F / -3°C 21% 29.95 in
(1014 mb)
NNW 15 mph
(NNW 24 kph)
- 10SM
14:54
Clear
66°F / 19°C 27°F / -3°C 22% 29.95 in
(1014 mb)
N 12.7 mph
(N 20 kph)
- 10SM
13:54
Clear
66°F / 19°C 27°F / -3°C 22% 29.98 in
(1015 mb)
NNW 12.7 mph
(NNW 20 kph)
- 10SM
12:54
Clear
64°F / 18°C 27°F / -3°C 24% 29.98 in
(1015 mb)
N 11.5 mph
(N 19 kph)
- 10SM
11:54
Clear
63°F / 17°C 28°F / -2°C 27% 29.98 in
(1015 mb)
N 13.8 mph
(N 22 kph)
- 10SM
10:54
Clear
59°F / 15°C 30°F / -1°C 34% 29.98 in
(1015 mb)
N 8.1 mph
(N 13 kph)
- 10SM
09:54
Clear
57°F / 14°C 30°F / -1°C 36% 29.98 in
(1015 mb)
N 9.2 mph
(N 15 kph)
- 10SM
08:54
Clear
55°F / 13°C 28°F / -2°C 36% 29.98 in
(1015 mb)
N 15 mph
(N 24 kph)
- 10SM
07:54
Clear
54°F / 12°C 30°F / -1°C 41% 29.98 in
(1015 mb)
N 12.7 mph
(N 20 kph)
- 10SM
06:54
Clear
52°F / 11°C 30°F / -1°C 44% 29.95 in
(1014 mb)
N 13.8 mph
(N 22 kph)
- 10SM
05:54
Clear
50°F / 10°C 36°F / 2°C 58% 29.92 in
(1013 mb)
N 5.8 mph
(N 9 kph)
- 10SM
04:54
Clear
50°F / 10°C 37°F / 3°C 62% 29.89 in
(1012 mb)
NNW 8.1 mph
(NNW 13 kph)
- 10SM
03:54
Clear
55°F / 13°C 41°F / 5°C 59% 29.86 in
(1011 mb)
N 10.4 mph
(N 17 kph)
- 10SM
02:54
Clear
57°F / 14°C 45°F / 7°C 63% 29.86 in
(1011 mb)
NNW 18.4 mph
(NNW 30 kph)
- 10SM
01:54
Clear
57°F / 14°C 48°F / 9°C 72% 29.83 in
(1010 mb)
NNW 12.7 mph
(NNW 20 kph)
- 10SM
00:54
Clear
57°F / 14°C 54°F / 12°C 88% 29.83 in
(1010 mb)
NNW 6.9 mph
(NNW 11 kph)
- 10SM
Time Weather Temperature Dewpoint Humidity Pressure Winds Precip Visibility


Weather for websites

WeatherForYou.com, LLC is not responsible for any damages or problems caused by this service. Current weather conditions are obtained from the closest station including government and personal stations which may have varying degrees of accuracy. Weather forecasts are derived from the NOAA NDFD. Like all things, this site belongs to Jesus Christ... He just trusts me to maintain it. If you have any questions or comments email webmaster@weatherforyou.com

Copyright © 2014, WeatherForYou.com LLC. All rights reserved.